Location: Unspecified
(48.2082°N, 0.0000°E)
Time: 03:23:26
(UTC+00:00)

Altair - Pass Details

Date: 18 June 2019
Orbit: 1501 x 1683 km, 47.2° (Epoch: 21 July)

Event Time Altitude Azimuth Distance (km) Brightness Sun altitude
Rises 18:06:28 0° 170° (S) 4,690 9.8 16.4°
Reaches altitude 10° 18:12:09 10° 142° (SE) 3,754 9.1 15.5°
Maximum altitude 18:15:26 12° 122° (ESE) 3,605 8.9 15.0°
Drops below altitude 10° 18:18:45 10° 101° (E) 3,812 9.0 14.4°
Sets 18:24:35 0° 75° (ENE) 4,848 9.6 13.5°
